Simultaneous Nadir Overpasses (SNOs) Predictions

Prediction of SNOs between GOES-15 and METOP-A Satellite Orbit:

Table of predicted SNOs for the next 14.0 days since TLE Epoch: 1/14/2022
Index Date Time (GOES-15) GOES-15 Lat,Lon METOP-A Lat,Lon Distance(km) Time Diff (sec)
1 01/16/2022 04:18:16 0.07,-128.34 0.87,-124.81 403.35 80
2 01/16/2022 16:33:38 -0.06,-128.37 -0.06,-128.50 15.34 80
3 01/17/2022 04:53:51 0.06,-128.35 -0.88,-132.73 498.03 80
4 01/19/2022 04:20:12 0.05,-128.35 0.76,-125.13 366.70 80
5 01/19/2022 16:38:08 -0.05,-128.37 0.04,-128.80 49.11 80
6 01/22/2022 04:22:06 0.04,-128.35 0.69,-125.45 329.98 80
7 01/22/2022 16:39:58 -0.04,-128.37 0.11,-129.11 84.09 80
8 01/25/2022 04:23:59 0.04,-128.34 0.58,-125.76 292.80 80
9 01/25/2022 16:41:49 -0.03,-128.35 0.20,-129.41 120.54 80
10 01/28/2022 04:25:51 0.03,-128.31 0.50,-126.07 254.33 80
11 01/28/2022 16:43:40 -0.03,-128.32 0.26,-129.72 159.28 80
